User: anonymous   Login
Location: Rumah Sambob
(2.9167°N, 113.9167°E)
Time: 12:09:43
(UTC+00:00)
Language:

Ariane H10+ - Orbit

View from above orbital plane
View from above orbital plane
View from above satellite
View from above satellite

Ground track
Ground track

The orbit data is extracted from the following two-line orbital elements,

1 21941U 92021C   20275.00000000  .05034800 -36327-4  27087-3 0  9990
2 21941   3.9693 148.5999 0109591 156.0607 329.7877 16.23063679468020
Epoch (UTC): 01 October 2020 00:00:00
Eccentricity: 0.0109591
inclination: 3.9693°
perigee height: 139 km
apogee height: 283 km
right ascension of ascending node: 148.5999°
argument of perigee: 156.0607°
revolutions per day: 16.23063679
mean anomaly at epoch: 329.7877°
orbit number at epoch: 46802

The dashed part of the orbit path shows where the satellite is in the earth's shadow,  

DLR